This demonstration page uses our WeatherBlox Daily Observations layout. Learn more.

Left ArrowRight Arrow

39.92423, -83.80882

Hourly Observations for March 11, 2018

Temp ( °F °C ) Dew Point ( °F °C ) Humidity (%) Winds ( mph kmh ) Pressure ( in mb ) Visibility ( mi km ) Precip ( " mm )
12:56 am 00:56 Clear 25 -3.9 20 -6.7 81 81 ENE 8 13 30.14 1021 10 16 N/A
1:56 am 01:56 Clear 24 -4.4 19 -7.2 81 81 E 8 13 30.14 1021 10 16 N/A
3:56 am 03:56 Clear 23 -5 19 -7.2 85 85 ENE 7 11 30.14 1021 10 16 N/A
4:56 am 04:56 Clear 22 -5.6 18 -7.8 85 85 ENE 9 15 30.13 1020 10 16 N/A
5:56 am 05:56 Clear 23 -5 19 -7.2 85 85 ENE 9 15 30.14 1021 10 16 N/A
6:56 am 06:56 Clear 23 -5 18 -7.8 81 81 E 8 13 30.16 1021 10 16 N/A
7:56 am 07:56 Sunny 22 -5.6 17 -8.3 82 82 E 9 15 30.16 1022 10 16 N/A
8:56 am 08:56 Sunny 27 -2.8 20 -6.7 75 75 E 12 19 30.17 1022 10 16 N/A
9:56 am 09:56 Sunny 29 -1.7 20 -6.7 69 69 E 16 26 30.19 1022 10 16 N/A
10:56 am 10:56 Sunny 33 0.6 19 -7.2 56 56 ENE 16 26 30.17 1022 10 16 N/A
11:56 am 11:56 Sunny 34 1.1 19 -7.2 54 54 E 14 22 30.16 1021 10 16 N/A
12:56 pm 12:56 Sunny 38 3.3 20 -6.7 48 48 ENE 14 22 30.15 1021 10 16 N/A
1:56 pm 13:56 Sunny 39 3.9 20 -6.7 46 46 ENE 13 20 30.13 1020 10 16 N/A
2:56 pm 14:56 Sunny 40 4.4 21 -6.1 47 47 ENE 13 20 30.11 1020 10 16 N/A
3:56 pm 15:56 Sunny 40 4.4 21 -6.1 47 47 NE 13 20 30.10 1019 10 16 N/A
4:56 pm 16:56 Sunny 40 4.4 21 -6.1 47 47 NE 15 24 30.07 1018 10 16 N/A
5:56 pm 17:56 Sunny 40 4.4 23 -5 51 51 NE 15 24 30.06 1018 10 16 N/A
6:56 pm 18:56 Sunny 38 3.3 23 -5 55 55 NE 14 22 30.08 1019 10 16 N/A
7:56 pm 19:56 Clear 36 2.2 23 -5 59 59 NNE 13 20 30.08 1019 10 16 N/A
8:56 pm 20:56 Clear 36 2.2 23 -5 59 59 NNE 14 22 30.08 1019 10 16 N/A
9:56 pm 21:56 Clear 33 0.6 23 -5 66 66 NE 17 28 30.08 1019 10 16 N/A
10:56 pm 22:56 Clear 32 undefined 20 -6.7 61 61 NE 15 24 30.07 1018 10 16 N/A
11:56 pm 23:56 Clear 32 undefined 21 -6.1 64 64 NE 14 22 30.07 1018 10 16 N/A

Powered by AerisWeather